Regional Weather Roundup
Issued by NWS

Home | Current Version | Previous Version | Text Only | Print | Product List | Glossary Off
Versions: 1 2 3 4 5 6 7 8 9 10 11 12 13 14 15 16 17 18 19 20 21 22 23 24 25 26 27 28 29 30 31 32 33 34 35 36 37 38 39 40 41 42 43 44 45 46 47 48 49 50

000
ASUS43 KLMK 292202
RWRKY
KENTUCKY REGIONAL WEATHER ROUNDUP
NATIONAL WEATHER SERVICE LOUISVILLE KY
600 PM EDT TUE JUL 29 2014

NOTE "FAIR" INDICATES FEW OR NO CLOUDS BELOW 12,000 FEET
WITH NO SIGNIFICANT WEATHER AND/OR OBSTRUCTIONS TO VISIBILITY.

KYZ001>023-026-027-061>063-070>075-292300-
WESTERN AND SOUTH CENTRAL KENTUCKY

CITY           SKY/WX    TMP DP  RH WIND       PRES   REMARKS
PADUCAH        MOSUNNY   80  53  39 N3        30.10F
HENDERSON      MOSUNNY   79  54  41 NW8       30.08S
OWENSBORO      SUNNY     78  55  44 N8        30.08F
HOPKINSVILLE   MOSUNNY   80  51  36 NW12      30.09S
BOWLING GREEN  CLOUDY    76  53  44 N9        30.08S
GLASGOW        MOSUNNY   76  53  44 N12       30.08S
$$

KYZ024-025-028>034-038-045-046-053-292300-
NORTH CENTRAL KENTUCKY

CITY           SKY/WX    TMP DP  RH WIND       PRES   REMARKS
LOUISVILLE/SDF MOSUNNY   79  53  40 N10       30.06F
LOUISVILLE/LOU MOSUNNY   77  52  41 NW8       30.07F
FORT KNOX      MOSUNNY   75  57  54 NW6       30.06F
$$

KYZ035>037-039>044-047>052-055>060-089>105-292300-
NORTHEAST KENTUCKY

CITY           SKY/WX    TMP DP  RH WIND       PRES   REMARKS
LEXINGTON      PTSUNNY   74  53  48 NW10      30.08S
COVINGTON      MOSUNNY   73  51  46 NW6       30.06F
FRANKFORT      MOSUNNY   74  51  44 NW8       30.07S
$$

KYZ054-064>069-076>088-106>120-292300-
SOUTHEAST KENTUCKY

CITY           SKY/WX    TMP DP  RH WIND       PRES   REMARKS
JACKSON        CLOUDY    67  53  61 VRB6      30.07S
LONDON         PTSUNNY   72  52  49 NW10      30.08S
SOMERSET       MOSUNNY   72  52  49 NW9       30.09S
MIDDLESBORO    MOSUNNY   72  52  49 NW8       30.07S
MONTICELLO     CLEAR     74  55  51 N9        30.10S
$$



USA.gov is the U.S. government's official web portal to all federal, state and local government web resources and services.